Weather History for Lyndonville, VT

Change the Weather History Date:

Wednesday, December 4, 2013

  Actual Average (K1V4) Record (K1V4)
Temperature  
Mean Temperature 30 °F 28 °F  
Max Temperature 35 °F 36 °F 63 °F (1982)
Min Temperature 24 °F 20 °F -27 °F (1940)
Degree Days  
Heating Degree Days 36 37  
Month to date heating degree days 146  
Since 1 July heating degree days 1802  
Cooling Degree Days 0 0  
Month to date cooling degree days 0  
Year to date cooling degree days 433  
Moisture  
Dew Point 23 °F    
Average Humidity 73    
Maximum Humidity 89    
Minimum Humidity 62    
Precipitation  
Precipitation 0.00 in 0.11 in 1.11 in (1990)
Month to date precipitation 0.43  
Year to date precipitation 36.85  
Sea Level Pressure  
Sea Level Pressure 30.07 in    
Wind  
Wind Speed 4 mph (NNW)    
Max Wind Speed 9 mph    
Max Gust Speed 16 mph    
Visibility 10 miles    
Events      
T = Trace of Precipitation, MM = Missing Value Source: NWS Daily Summary

Daily Weather History Graph

Daily Weather History Graph

Search for Another Location

Airport:

Trip Planner

Search our weather history database for the weather conditions in past years. The results will help you decide how hot, cold, wet, or windy it might be!

Date:

Astronomy

Dec. 04, 2013 Rise Set
Actual Time 7:08 AM EST 4:08 PM EST
Civil Twilight 6:35 AM EST 4:41 PM EST
Nautical Twilight 5:58 AM EST 5:18 PM EST
Astronomical Twilight 5:23 AM EST 5:53 PM EST
Moon 8:32 AM EST (12/4) 6:17 PM EST (12/4)
Length of Visible Light 10h 06m
Length of Day
9h 00m
Waxing Crescent, 4% of the Moon is Illuminated
Dec 4
Waxing Crescent
Dec 9
First Quarter
Dec 17
Full
Dec 25
Last Quarter
Jan 1
New

Hourly Weather History & Observations

Time (EST) Temp. Windchill Dew Point Humidity Pressure Visibility Wind Dir Wind Speed Gust Speed Precip Events Conditions
12:15 AM 31.6 °F 25.1 °F 22.1 °F 68% 29.95 in 10.0 mi WNW 6.9 mph - N/A   Overcast
12:35 AM 31.5 °F 24.2 °F 21.7 °F 67% 29.96 in 10.0 mi NW 8.1 mph - N/A   Overcast
12:55 AM 31.1 °F 23.1 °F 21.0 °F 66% 29.96 in 10.0 mi NW 9.2 mph 16.1 mph N/A   Overcast
1:15 AM 31.1 °F 25.4 °F 20.3 °F 64% 29.96 in 10.0 mi WNW 5.8 mph - N/A   Overcast
1:35 AM 31.1 °F 25.4 °F 20.3 °F 64% 29.97 in 10.0 mi NW 5.8 mph - N/A   Overcast
1:55 AM 30.9 °F 25.2 °F 20.5 °F 65% 29.97 in 10.0 mi WNW 5.8 mph - N/A   Overcast
2:15 AM 30.6 °F 25.8 °F 21.0 °F 68% 29.98 in 10.0 mi WNW 4.6 mph - N/A   Overcast
2:35 AM 30.7 °F 27.3 °F 21.2 °F 68% 29.98 in 10.0 mi NW 3.5 mph - N/A   Overcast
2:55 AM 30.4 °F 26.9 °F 21.7 °F 70% 29.97 in 10.0 mi West 3.5 mph - N/A   Overcast
3:15 AM 30.2 °F 26.7 °F 21.7 °F 71% 29.97 in 10.0 mi West 3.5 mph - N/A   Overcast
3:35 AM 30.0 °F 24.1 °F 22.1 °F 72% 29.98 in 10.0 mi NW 5.8 mph - N/A   Overcast
3:55 AM 29.3 °F 25.6 °F 22.8 °F 77% 29.98 in 10.0 mi NW 3.5 mph - N/A   Overcast
4:15 AM 29.3 °F 25.6 °F 23.0 °F 77% 29.98 in 10.0 mi WNW 3.5 mph - N/A   Overcast
4:35 AM 29.3 °F - 23.7 °F 80% 29.99 in 10.0 mi Calm Calm - N/A   Overcast
4:55 AM 29.5 °F 25.9 °F 23.4 °F 78% 29.99 in 10.0 mi WNW 3.5 mph - N/A   Overcast
5:15 AM 29.7 °F - 23.9 °F 79% 30.00 in 10.0 mi Calm Calm - N/A   Overcast
5:35 AM 29.8 °F - 23.9 °F 79% 30.00 in 10.0 mi Calm Calm - N/A   Overcast
5:55 AM 29.8 °F - 23.9 °F 79% 30.01 in 10.0 mi Calm Calm - N/A   Overcast
6:15 AM 30.0 °F 26.5 °F 24.4 °F 80% 30.02 in 10.0 mi WNW 3.5 mph - N/A   Overcast
6:35 AM 30.0 °F - 24.8 °F 81% 30.04 in 10.0 mi Calm Calm - N/A   Overcast
6:55 AM 30.0 °F - 24.8 °F 81% 30.04 in 10.0 mi Calm Calm - N/A   Overcast
7:15 AM 30.6 °F 27.1 °F 24.8 °F 79% 30.05 in 10.0 mi NW 3.5 mph - N/A   Overcast
7:35 AM 30.6 °F 24.7 °F 24.8 °F 79% 30.05 in 10.0 mi NW 5.8 mph - N/A   Overcast
7:55 AM 30.9 °F 25.2 °F 24.6 °F 77% 30.06 in 10.0 mi WNW 5.8 mph - N/A   Overcast
8:15 AM 31.1 °F 26.4 °F 23.9 °F 75% 30.07 in 10.0 mi NNW 4.6 mph - N/A   Overcast
8:35 AM 31.1 °F 25.4 °F 23.4 °F 73% 30.08 in 10.0 mi NW 5.8 mph - N/A   Overcast
8:55 AM 31.1 °F 27.7 °F 24.8 °F 77% 30.09 in 10.0 mi WNW 3.5 mph - N/A   Overcast
9:15 AM 31.5 °F 26.8 °F 24.4 °F 75% 30.09 in 10.0 mi WNW 4.6 mph - N/A   Overcast
9:35 AM 31.8 °F 27.3 °F 23.0 °F 70% 30.09 in 10.0 mi NW 4.6 mph - N/A   Overcast
9:55 AM 31.5 °F 26.8 °F 22.1 °F 68% 30.09 in 10.0 mi NNW 4.6 mph - N/A   Mostly Cloudy
10:15 AM 32.0 °F 25.6 °F 22.1 °F 67% 30.09 in 10.0 mi NW 6.9 mph - N/A   Mostly Cloudy
10:35 AM 32.5 °F 24.8 °F 22.3 °F 66% 30.08 in 10.0 mi NNW 9.2 mph - N/A   Scattered Clouds
10:55 AM 32.5 °F 26.2 °F 22.6 °F 67% 30.08 in 10.0 mi WNW 6.9 mph - N/A   Mostly Cloudy
11:15 AM 32.7 °F 26.4 °F 22.5 °F 66% 30.08 in 10.0 mi NW 6.9 mph - N/A   Mostly Cloudy
11:35 AM 33.1 °F 25.5 °F 23.0 °F 66% 30.09 in 10.0 mi NW 9.2 mph - N/A   Mostly Cloudy
11:55 AM 34.5 °F 27.3 °F 23.0 °F 63% 30.09 in 10.0 mi NW 9.2 mph - N/A   Mostly Cloudy
12:15 PM 34.3 °F 30.2 °F 23.0 °F 63% 30.09 in 10.0 mi NNW 4.6 mph - N/A   Mostly Cloudy
12:35 PM 34.9 °F 32.0 °F 23.0 °F 62% 30.08 in 10.0 mi NNW 3.5 mph - N/A   Mostly Cloudy
12:55 PM 35.1 °F 27.9 °F 23.5 °F 63% 30.07 in 10.0 mi North 9.2 mph - N/A   Overcast
1:15 PM 34.9 °F 29.9 °F 23.4 °F 63% 30.07 in 10.0 mi NNE 5.8 mph - N/A   Overcast
1:35 PM 34.9 °F 30.8 °F 23.4 °F 63% 30.08 in 10.0 mi North 4.6 mph - N/A   Scattered Clouds
1:55 PM 35.1 °F 32.2 °F 24.1 °F 64% 30.08 in 10.0 mi NNE 3.5 mph - N/A   Scattered Clouds
2:15 PM 35.1 °F - 23.4 °F 62% 30.08 in 10.0 mi Calm Calm - N/A   Scattered Clouds
2:35 PM 35.4 °F 31.5 °F 23.5 °F 62% 30.08 in 10.0 mi East 4.6 mph - N/A   Clear
2:55 PM 35.2 °F 31.2 °F 23.2 °F 62% 30.08 in 10.0 mi East 4.6 mph - N/A   Clear
3:15 PM 34.5 °F - 23.2 °F 63% 30.10 in 10.0 mi Calm Calm - N/A   Clear
3:35 PM 34.0 °F 31.0 °F 22.5 °F 63% 30.11 in 10.0 mi NE 3.5 mph - N/A   Clear
3:55 PM 33.8 °F - 22.6 °F 64% 30.10 in 10.0 mi Calm Calm - N/A   Clear
4:15 PM 32.9 °F - 23.0 °F 67% 30.11 in 10.0 mi Calm Calm - N/A   Clear
4:35 PM 32.0 °F 28.7 °F 22.6 °F 68% 30.11 in 10.0 mi NE 3.5 mph - N/A   Clear
4:55 PM 31.5 °F 28.1 °F 22.5 °F 69% 30.11 in 10.0 mi NNE 3.5 mph - N/A   Scattered Clouds
5:15 PM 32.0 °F 28.7 °F 22.5 °F 68% 30.12 in 10.0 mi North 3.5 mph - N/A   Clear
5:35 PM 31.1 °F - 22.5 °F 70% 30.12 in 10.0 mi Calm Calm - N/A   Clear
5:55 PM 31.3 °F 27.9 °F 22.8 °F 71% 30.14 in 10.0 mi West 3.5 mph - N/A   Clear
6:15 PM 30.9 °F - 22.5 °F 71% 30.15 in 10.0 mi Calm Calm - N/A   Scattered Clouds
6:35 PM 31.3 °F - 22.3 °F 69% 30.15 in 10.0 mi Calm Calm - N/A   Mostly Cloudy
6:55 PM 29.3 °F 25.6 °F 22.6 °F 76% 30.16 in 10.0 mi East 3.5 mph - N/A   Overcast
7:15 PM 27.7 °F 22.4 °F 22.5 °F 81% 30.15 in 10.0 mi ENE 4.6 mph - N/A   Mostly Cloudy
7:35 PM 28.6 °F - 23.2 °F 80% 30.15 in 10.0 mi Calm Calm - N/A   Scattered Clouds
7:55 PM 28.0 °F - 22.6 °F 80% 30.15 in 10.0 mi Calm Calm - N/A   Clear
8:15 PM 28.4 °F - 22.8 °F 80% 30.15 in 10.0 mi Calm Calm - N/A   Clear
8:35 PM 28.4 °F - 23.0 °F 80% 30.15 in 10.0 mi Calm Calm - N/A   Clear
8:55 PM 28.2 °F - 23.0 °F 81% 30.14 in 10.0 mi Calm Calm - N/A   Clear
9:15 PM 27.3 °F - 22.8 °F 83% 30.14 in 10.0 mi Calm Calm - N/A   Clear
9:35 PM 26.4 °F - 22.5 °F 85% 30.14 in 10.0 mi Calm Calm - N/A   Clear
9:55 PM 25.7 °F - 22.3 °F 87% 30.14 in 10.0 mi Calm Calm - N/A   Clear
10:15 PM 25.5 °F - 22.1 °F 87% 30.15 in 10.0 mi Calm Calm - N/A   Clear
10:35 PM 25.9 °F - 22.8 °F 88% 30.16 in 7.0 mi Calm Calm - N/A   Clear
10:55 PM 24.8 °F 19.1 °F 21.9 °F 89% 30.16 in 7.0 mi ENE 4.6 mph - N/A   Clear
11:15 PM 24.6 °F 20.3 °F 21.7 °F 89% 30.16 in 10.0 mi NE 3.5 mph - N/A   Clear
11:35 PM 25.9 °F - 22.8 °F 88% 30.15 in 10.0 mi Calm Calm - N/A   Clear
11:55 PM 24.4 °F - 21.6 °F 89% 30.15 in 7.0 mi Calm Calm - N/A   Clear